Regional Weather Roundup
Issued by NWS

Home | Current Version | Previous Version | Text Only | Print | Product List | Glossary On
Versions: 1 2 3 4 5 6 7 8 9 10 11 12 13 14 15 16 17 18 19 20 21 22 23 24 25 26 27 28 29 30 31 32 33 34 35 36 37 38 39 40 41 42 43 44 45 46 47 48 49 50
000
ASUS42 KKEY 020610
RWRKEY

FLORIDA REGIONAL WEATHER ROUNDUP FOR THE FLORIDA KEYS
NATIONAL WEATHER SERVICE KEY WEST FLORIDA
200 AM EDT THU OCT 02 2014

...SOUTH FLORIDA AND THE KEYS...

CITY           SKY/WX    TMP DP  RH WIND       PRES   REMARKS
FORT MYERS     CLEAR     77  76  96 CALM      29.96F
SW REGIONAL AP CLEAR     76  75  97 CALM      29.97F
NAPLES         CLEAR     81  76  84 CALM      29.96F
MIAMI          PTCLDY    82  76  81 W5        29.97F
WEST KENDALL   CLEAR     78  75  90 CALM      29.97F
HOMESTEAD      CLEAR     78  76  93 SW3       29.97F
MARATHON       CLEAR     81  78  91 CALM      29.98S
BOCA CHICA NAS PTCLDY    82  75  79 CALM      29.98F
KEY WEST INTL  PTCLDY    83  76  79 SE3       29.98F HX  91

...INTERNATIONAL WEATHER...

CITY           SKY/WX    TMP DP  RH WIND       PRES   REMARKS
NASSAU BAHAMAS PTCLDY    81  79  94 CALM      29.98F
CANCUN MEXICO  MOCLDY    82  79  89 SE9       29.94F HX  93
COZUMEL MEXICO PTCLDY    75  75 100 CALM      29.95S

ADJACENT COASTAL WATERS...

STATION/POSITION TIME  SKY/WX   TEMP    WIND        PRES    WAVE
                                AIR SEA DIR/SP/G            HT/PER
                 (UTC)          (F)     (DEG/KT/KT) (MB)    (FT/S)
PULASKI SHOAL LI 0458            84     110/  2/  2 1015.4F
SAND KEY         0540            83     170/  8/ 15 1015.4F
SOMBRERO KEY     0600            83     320/  1/  2 1016.0F
LONG KEY         0600            84 87  250/  5/  5 1015.9F
MOLASSES REEF    0600            84 85  310/  3/  4 1015.0F
FOWEY ROCKS      0600            83 85  290/  5/  6 1015.1F
Buoy 42080       NOT AVBL

$$



USA.gov is the U.S. government's official web portal to all federal, state and local government web resources and services.